Location: Newark
(40.7066°N, 111.8219°W)
Time: 21:27:14
(UTC+00:00)

deb Explorer IX - Pass Details

Date: 21 November 2019
Orbit: 545 x 1105 km, 38.8° (Epoch: 08 December)

Event Time Altitude Azimuth Distance (km) Brightness Sun altitude
Exits shadow 13:33:37 - 259° (W) 2,424 ? -9.1°
Reaches altitude 10° 13:34:35 10° 251° (WSW) 2,178 ? -9.0°
Maximum altitude 13:37:17 15° 218° (SW) 1,798 ? -8.5°
Drops below altitude 10° 13:39:48 10° 185° (S) 2,004 ? -8.0°
Sets 13:42:56 0° 160° (SSE) 2,818 ? -7.5°
